Regional Weather Roundup
Issued by NWS Green Bay, WI

Home | Current Version | Previous Version | Graphics & Text | Print | Product List | Glossary Off
Versions: 1 2 3 4 5 6 7 8 9 10 11 12 13 14 15 16 17 18 19 20 21 22 23 24 25 26 27 28 29 30 31 32 33 34 35 36 37 38 39 40 41 42 43 44 45 46 47 48 49 50

000
ASUS43 KGRB 241611
RWRGRB

NORTH-CENTRAL AND NORTHEAST WISCONSIN REGIONAL WEATHER ROUNDUP
NATIONAL WEATHER SERVICE GREEN BAY WI
1100 AM CDT WED MAY 24 2017

WIZ005-009-010>012-018-019-241700-
NORTH CENTRAL WISCONSIN

CITY           SKY/WX    TMP DP  RH WIND       PRES   REMARKS
IRONWOOD       CLOUDY    54  44  69 N9        29.79F
MANITOWISH WTR CLOUDY    52  45  75 NE14      29.76F
ARBOR VITAE    CLOUDY    52  45  77 NE6       29.74F
EAGLE RIVER    CLOUDY    48  44  85 NE9       29.75S
LAND O LAKES   CLOUDY    49  45  86 NE7       29.78S
RHINELANDER    CLOUDY    50  45  83 E9        29.75S
PHILLIPS       CLOUDY    53  44  72 NE9       29.75S
ANTIGO         CLOUDY    49  47  93 NE12      29.72S
TOMAHAWK       CLOUDY    50  44  80 NE3       29.74F
MERRILL        CLOUDY    51  48  89 NE9G16    29.73S
$$

WIZ013-073-241700-
NORTHEAST WISCONSIN

CITY           SKY/WX    TMP DP  RH WIND       PRES   REMARKS
IRON MOUNTAIN  CLOUDY    49  45  86 NE8       29.74S
MARINETTE      CLOUDY    51  48  89 NE10      29.73S
OCONTO         CLOUDY    49  48  95 NE7       29.71S
$$

WIZ017-030-035>037-045-241700-
CENTRAL WISCONSIN

CITY           SKY/WX    TMP DP  RH WIND       PRES   REMARKS
MEDFORD        CLOUDY    51  46  82 NE10      29.72F
WAUSAU         CLOUDY    52  49  89 NE10      29.70S
MOSINEE        CLOUDY    50  50 100 NE10      29.72S FOG
MARSHFIELD     CLOUDY    52  47  83 NE13      29.70S
WISC RAPIDS    CLOUDY    52  49  89 NE8       29.71S
STEVENS POINT  CLOUDY    49  48  99 NE12      29.71S
WAUPACA        CLOUDY    52  50  93 NE6       29.70F
SHAWANO        LGT RAIN  52  49  90 NE9       29.71F
CLINTONVILLE   CLOUDY    48  46  93 NE9       29.70F
WAUTOMA        CLOUDY    50  49  96 NE8       29.69S
$$

WIZ038-039-048-051-241700-
FOX VALLEY

CITY           SKY/WX    TMP DP  RH WIND       PRES   REMARKS
NWS GREEN BAY  CLOUDY    51  51 100 NE14      29.70S
APPLETON       CLOUDY    50  48  93 NE12      29.68S
OSHKOSH        CLOUDY    51  49  92 NE12      29.67F
FOND DU LAC    CLOUDY    53  48  83 NE10      29.67S
$$

WIZ022-050-052-241700-
EAST CENTRAL WISCONSIN

CITY           SKY/WX    TMP DP  RH WIND       PRES   REMARKS
EPHRAIM        CLOUDY    46  46 100 N10G16    29.71S FOG
WASHINGTON ISL CLOUDY    49  47  95 NE12G17   29.71F
STURGEON BAY   LGT RAIN  49  48  97 N7        29.71F
MANITOWOC      LGT RAIN  48  46  93 N7        29.70S
SHEBOYGAN      LGT RAIN  51  51 100 N8        29.66F
$$

LMZ563-521-522-541>543-241700-
LAKESHORE

STATION/POSITION TIME  TEMP    WIND        PRES    VSBY  WAVE
                       AIR SEA DIR/SP/G                  HT/PER
                 (UTC) (F)     (DEG/KT/KT) (MB)    (MI)  (FT/S)
SHEBOYGAN LKSHOR 1600   46     360/ 16/ 18 1004.4F
KEWAUNEE LKSHORE 1548   47      30/ 10/ 14 1005.5R
NORTHPORT PIER   1540   50      40/  8/ 13 1006.4F
N MID LAKE BUOY  1550   43 40   60/ 12/ 14 1007.1F         1
CHAMBERS ISLAND  1540   47     360/ 14/ 16 1006.1S
MENOMINEE LKSHOR 1548           10/ 16/ 19 1005.6F
$$




USA.gov is the U.S. government's official web portal to all federal, state and local government web resources and services.